Location: Mercogliano
(40.9167°N, 14.7333°E)
Time: 05:03:56
(UTC+00:00)

Cosmos 2034 Rocket - Pass Details

Date: 18 September 2020
Orbit: 957 x 1002 km, 82.9° (Epoch: 25 October)

Event Time Altitude Azimuth Distance (km) Brightness Sun altitude
Rises 18:51:49 0° 186° (S) 3,709 6.9 -20.6°
Reaches altitude 10° 18:54:20 10° 186° (S) 2,764 6.2 -21.1°
Maximum altitude 19:00:43 88° 276° (W) 1,007 4.0 -22.2°
Drops below altitude 10° 19:07:06 10° 7° (N) 2,770 6.6 -23.3°
Sets 19:09:38 0° 8° (N) 3,719 7.3 -23.7°
